This demonstration page uses our WeatherBlox Daily Observations layout. Learn more.

Left ArrowRight Arrow

41.55636, -103.73856

Hourly Observations for July 13, 2018

Temp ( °F °C ) Dew Point ( °F °C ) Humidity (%) Winds ( mph kmh ) Pressure ( in mb ) Visibility ( mi km ) Precip ( " mm )
12:58 am 00:58 Mostly Clear with Mist and Fog 57 14 57 14 100 100 NNW 5 7 30.06 1018 3 5 0.01 0.25
1:58 am 01:58 Clear with Mist and Fog 57 14 55 13 94 94 NW 8 13 30.06 1018 6 10 N/A
2:58 am 02:58 Clear 58 14.4 57 13.7 96 96 WNW 7 11 30.06 1018 10 16 N/A
3:58 am 03:58 Clear with Mist and Fog 58 14.4 57 13.7 96 96 NNW 9 15 30.06 1018 6 10 N/A
4:58 am 04:58 Mostly Cloudy with Mist and Fog 58 14.7 58 14.2 97 97 NNE 9 15 30.08 1019 3 5 N/A
5:58 am 05:58 Mostly Cloudy with Fog 60 15.4 59 14.9 97 97 NNE 9 15 30.12 1020 0 0 N/A
6:58 am 06:58 Mostly Cloudy with Fog 60 15.8 59 15.2 96 96 NNE 10 17 30.16 1021 0 0 N/A
7:58 am 07:58 Cloudy with Mist and Fog 61 16.1 60 15.5 96 96 NE 7 11 30.18 1022 6 10 N/A
8:58 am 08:58 Cloudy 63 17.3 61 16 92 92 NNE 3 6 30.19 1022 10 16 N/A
9:58 am 09:58 Mostly Cloudy 66 19 63 17 88 88 N N/A 30.19 1022 10 16 0.01 0.25
10:58 am 10:58 Partly Cloudy 71 21.8 62 16.6 72 72 N N/A 30.17 1022 10 16 N/A
11:58 am 11:58 Sunny 75 24 58 14.7 56 56 SSW 5 7 30.16 1021 10 16 N/A
12:58 pm 12:58 Mostly Sunny 79 26 58 14.6 49 49 S 6 9 30.14 1021 10 16 N/A
1:58 pm 13:58 Partly Cloudy 80 26.6 57 13.8 45 45 SSW 6 9 30.13 1020 10 16 N/A
2:58 pm 14:58 Mostly Sunny 82 28 52 11 35 35 SSE 6 9 30.10 1019 10 16 N/A
3:58 pm 15:58 Mostly Sunny 85 29.2 49 9.7 30 30 ESE 6 9 30.08 1019 10 16 N/A
4:58 pm 16:58 Sunny 85 29.4 50 9.8 29 29 ESE 12 19 30.07 1018 10 16 N/A
5:58 pm 17:58 Sunny 84 29 50 10 31 31 E 12 19 30.05 1018 10 16 N/A
6:58 pm 18:58 Sunny 81 27.3 53 11.8 38 38 E 8 13 30.06 1018 10 16 N/A
7:58 pm 19:58 Sunny 77 25 55 13 47 47 SE 9 15 30.07 1018 10 16 N/A
8:58 pm 20:58 Clear 73 23 57 14 57 57 SE 12 19 30.10 1019 10 16 N/A
9:58 pm 21:58 Partly Cloudy 69 20.8 57 13.9 65 65 SSE 9 15 30.12 1020 10 16 N/A
10:58 pm 22:58 Clear 67 19.2 58 14.2 73 73 SSE 8 13 30.12 1020 10 16 N/A
11:58 pm 23:58 Clear 65 18.1 58 14.2 78 78 SSE 6 9 30.10 1019 10 16 N/A

Powered by AerisWeather